K5BV Weather Reports


Display with metric or nautical units.
time (UTC)temp
F
wind
direction
speed
MPH
gust
MPH
rain 1hr
in
rain 24hr
in
rain mn
in
humidity
%
barometer
mb
20210618141258 82 346 5.0 10.0 0.00 0.00 0.00 69 1014.3
20210618135258 82 358 6.0 12.0 0.00 0.00 0.00 72 1014.3
20210618134258 82 340 5.0 10.0 0.00 0.00 0.00 74 1014.1
20210618132257 81 345 5.0 9.0 0.00 0.00 0.00 75 1013.9
20210618131258 81 323 3.0 8.0 0.00 0.00 0.00 76 1013.7
20210618130257 81 2 4.0 8.0 0.00 0.00 0.00 75 1013.7
20210618125258 81 334 5.0 8.0 0.00 0.00 0.00 76 1013.7
20210618123258 80 342 4.0 8.0 0.00 0.00 0.00 79 1013.6
20210618120257 78 342 3.0 6.0 0.00 0.00 0.00 78 1013.6
20210618115257 78 324 1.0 6.0 0.00 0.00 0.00 78 1013.5
20210618114257 79 322 1.0 6.0 0.00 0.00 0.00 77 1013.5
20210618111258 80 339 3.0 7.0 0.00 0.00 0.00 73 1013.3
20210618110258 80 317 3.0 6.0 0.00 0.00 0.00 72 1013.3
20210618105258 81 276 2.0 6.0 0.00 0.00 0.00 71 1013.2
20210618095257 82 24 3.0 7.0 0.00 0.00 0.00 66 1013.3
20210618090258 83 39 1.0 6.0 0.00 0.00 0.00 64 1013.4
20210618083258 83 293 1.0 7.0 0.00 0.00 0.00 63 1013.4
20210618082258 84 71 2.0 8.0 0.00 0.00 0.00 63 1013.6
20210618075257 84 58 3.0 9.0 0.00 0.00 0.00 62 1013.8
20210618074258 84 82 5.0 9.0 0.00 0.00 0.00 61 1013.8
20210618073258 84 80 5.0 9.0 0.00 0.00 0.00 60 1013.9
20210618072258 83 74 5.0 10.0 0.00 0.00 0.00 60 1014.0
20210618071258 83 80 5.0 10.0 0.00 0.00 0.00 59 1014.1
20210618070257 84 69 6.0 10.0 0.00 0.00 0.00 59 1014.1
20210618064259 83 90 5.0 10.0 0.00 0.00 0.00 64 1014.2
20210618063258 83 86 4.0 10.0 0.00 0.00 0.00 67 1014.3
20210618062259 83 82 6.0 12.0 0.00 0.00 0.00 68 1014.4
20210618061258 83 87 8.0 12.0 0.00 0.00 0.00 69 1014.4
20210618054258 84 100 6.0 12.0 0.00 0.00 0.00 70 1014.7
20210618052257 83 105 7.0 13.0 0.00 0.00 0.00 70 1014.9
20210618051258 84 104 7.0 15.0 0.00 0.00 0.00 68 1014.9
20210618043300 84 80 9.0 17.0 0.00 0.00 0.00 61 1015.1
20210618033300 85 96 6.0 14.0 0.00 0.00 0.00 59 1014.8
20210618025259 85 88 6.0 16.0 0.00 0.00 0.00 62 1014.5
20210618022300 85 82 10.0 18.0 0.00 0.00 0.00 60 1014.3
20210618015301 86 51 5.0 16.0 0.00 0.00 0.00 61 1014.3
20210618014300 86 77 5.0 14.0 0.00 0.00 0.00 60 1014.2
20210618013300 86 210 3.0 12.0 0.00 0.00 0.00 61 1014.2
20210618011300 88 357 2.0 8.0 0.00 0.00 0.00 68 1014.1
20210618002300 90 36 6.0 10.0 0.00 0.00 0.00 61 1014.1
20210617234300 91 83 5.0 12.0 0.00 0.00 0.00 52 1014.1
20210617225300 91 82 7.0 13.0 0.00 0.00 0.00 53 1014.0
20210617223300 91 103 2.0 13.0 0.00 0.00 0.00 54 1014.1
20210617222300 91 83 7.0 13.0 0.00 0.00 0.00 54 1014.1
20210617221300 92 80 8.0 12.0 0.00 0.00 0.00 52 1014.2
20210617220300 92 78 6.0 10.0 0.00 0.00 0.00 53 1014.4
20210617215300 91 100 6.0 14.0 0.00 0.00 0.00 56 1014.3
20210617214259 91 84 9.0 14.0 0.00 0.00 0.00 55 1014.4
20210617213300 91 66 4.0 12.0 0.00 0.00 0.00 58 1014.5
20210617211300 91 76 7.0 13.0 0.00 0.00 0.00 56 1014.6
20210617210300 91 62 7.0 10.0 0.00 0.00 0.00 56 1014.6
20210617204300 92 104 6.0 12.0 0.00 0.00 0.00 57 1014.6
20210617202300 91 94 7.0 12.0 0.00 0.00 0.00 56 1014.7
20210617200300 91 86 7.0 16.0 0.00 0.00 0.00 55 1015.0
20210617194300 91 272 5.0 14.0 0.00 0.00 0.00 63 1015.1
20210617190300 90 340 3.0 8.0 0.00 0.00 0.00 60 1015.3
20210617185300 90 259 4.0 10.0 0.00 0.00 0.00 59 1015.4
20210617184300 91 142 4.0 13.0 0.00 0.00 0.00 58 1015.5
20210617183259 91 71 4.0 9.0 0.00 0.00 0.00 58 1015.6
20210617180259 90 31 3.0 8.0 0.00 0.00 0.00 58 1015.9
20210617175300 90 62 3.0 9.0 0.00 0.00 0.00 58 1015.8
20210617172300 89 14 3.0 10.0 0.00 0.00 0.00 66 1016.1
20210617170300 89 22 3.0 9.0 0.00 0.00 0.00 67 1016.4
20210617163300 88 19 7.0 12.0 0.00 0.00 0.00 70 1016.4
20210617162300 87 2 5.0 12.0 0.00 0.00 0.00 71 1016.4
20210617160300 86 25 7.0 13.0 0.00 0.00 0.00 74 1016.3
20210617155300 85 13 7.0 13.0 0.00 0.00 0.00 76 1016.3
20210617151259 85 17 6.0 13.0 0.00 0.00 0.00 78 1016.4
20210617150300 85 24 9.0 15.0 0.00 0.00 0.00 78 1016.5
20210617145259 84 18 8.0 14.0 0.00 0.00 0.00 78 1016.5